STARLINK-1231, 45212

Orbit data source: Space-Track

STARLINK-1231, 45212 is a payload satellite owned by SpaceX/Seattle (US) in LEO that was launched on Mon, 17 Feb 2020 UTC via an FALCON 9 launch vehicle from the Air Force Eastern Test Range (AFETR). Payload-class satellites include a variety of spacecraft equipped with specific instruments for various scientific and technological missions. These include communications satellites like Starlink; space stations such as the ISS; scientific satellites like the Hubble; Earth observation satellites from companies like Planet Labs, Umbra, and HawkEye 360; GPS; miniature CubeSats for education and research; and military/defense satellites.

Loading next visibility...
Identifier
45212, 2020-012AL
Orbit
LEO
Country
Flag of USUS
Related business
Manufacturer
SpaceX/Seattle
Mission
Partially operational Commercial Communications
Bus & Motor
STARLINK, Unknown motor
Mass
260 kg wet, ~248 kg dry
Launch date (UTC)
2020-02-17 (6 years ago)
Launch vehicle
FALCON 9
Launch site
Air Force Eastern Test Range (AFETR)
Object type
Payload
Rocket body
Debris
Shape & HBR
Box + 1 Pan, 4.4 m
Radar Cross Section
13.562 m², Large (>1 m²)

Expand to show TLE details & history
Last TLE update: 1 day ago

TLE from 1 day ago
0 STARLINK-1231
1 45212U 20012AL  25260.76990812  .00020354  00000-0  12991-2 0  9994
2 45212  53.0523  82.4803 0003568 151.0300 209.0888 15.08668569309013
Epoch: 2025-09-17T18:28Z
TLE epoch observation values (Epoch: 2025-09-17T18:28:40.061Z)
Latitude
-0.00007°
Longitude
168.37223°
Altitude
543.305 km
Speed
7.591 km/s
True Right ascension
05h 29m 55s
True Declination
0° 00' 00"
Sunlit
Object was in daylight at epoch
Visualization orbit readout
Latitude
Unknown
Longitude
Unknown
Altitude
Unknown
Speed
Unknown
Apparent Right ascension
Unknown
Apparent Declination
Unknown
Sunlit
N/A
Visualization observer readout
Local Sidereal Time
18:01:49
Azimuth
Unknown
Elevation
Unknown
Doppler factor
Unknown
Orbital elements
Apogee altitude
543.007 km
Perigee altitude
538.07 km
Semi-major axis
6,918.676 km
Eccentricity
0.00036
Inclination
53.0523°
RAAN
82.4803°
Arg. of periapsis
151.03°
True anomaly
209.06893°
Mean anomaly
209.0888°
Eccentric anomaly
209.07886°
Mean motion
3.77145 °/min
Orbital period
95.45 mins
BSTAR
0.0012991
Loading maneuver chart data...
Computing Atmospheric mass density...

Documentation

Showing up to 5 results
|